AOJ74J LIRQ-LSZR

Flight info

Callsign AOJ74J
Flight time 0h 52m
Altitude 40000
Route OKMAP Q125 OMAKU DCT BOA DCT BRENO M726 KOGOL L608 KPT
Aircraft C750/M-SBDE3FGHRWXY/S

Departure

Time 2026-05-05 12:08
Airport Florence Airport, Peretola (LIRQ)

Arrival

Time 2026-05-05 13:01
Airport Sankt Gallen Altenrhein Airport (LSZR)
Time Latitude Longitude Altitude Speed Heading
2026-05-05 12:00 43.80821 11.19661 126 ft 0 kts 248°
2026-05-05 12:05 43.80814 11.19648 124 ft 5 kts 225°
2026-05-05 12:05 43.80773 11.19651 127 ft 6 kts 171°
2026-05-05 12:05 43.80735 11.19621 125 ft 8 kts 230°
2026-05-05 12:06 43.80696 11.19605 123 ft 6 kts 136°
2026-05-05 12:06 43.80663 11.19652 121 ft 7 kts 134°
2026-05-05 12:06 43.80650 11.19668 123 ft 0 kts 141°
2026-05-05 12:06 43.80640 11.19679 123 ft 6 kts 142°
2026-05-05 12:07 43.80596 11.19728 123 ft 9 kts 140°
2026-05-05 12:07 43.80555 11.19790 120 ft 8 kts 109°
2026-05-05 12:07 43.80561 11.19824 124 ft 0 kts 50°
2026-05-05 12:07 43.80562 11.19825 124 ft 3 kts 50°
2026-05-05 12:08 43.80835 11.20248 130 ft 116 kts 48°
2026-05-05 12:08 43.81457 11.21197 642 ft 130 kts 46°
2026-05-05 12:08 43.82178 11.21995 1336 ft 142 kts 25°
2026-05-05 12:08 43.83155 11.22336 2035 ft 147 kts 359°
2026-05-05 12:09 43.84166 11.22133 2762 ft 147 kts 335°
2026-05-05 12:09 43.85020 11.21415 3528 ft 143 kts 311°
2026-05-05 12:09 43.85590 11.20338 4300 ft 135 kts 289°
2026-05-05 12:09 43.85829 11.19105 5052 ft 131 kts 270°
2026-05-05 12:10 43.85739 11.17877 5759 ft 131 kts 253°
2026-05-05 12:10 43.85321 11.16643 6209 ft 154 kts 240°
2026-05-05 12:10 43.84758 11.15249 6617 ft 178 kts 241°
2026-05-05 12:10 43.84122 11.13646 6999 ft 202 kts 241°
2026-05-05 12:11 43.83419 11.11902 7674 ft 208 kts 241°
2026-05-05 12:11 43.82713 11.10156 8559 ft 208 kts 241°
2026-05-05 12:11 43.82002 11.08396 9367 ft 211 kts 241°
2026-05-05 12:11 43.81316 11.06588 10061 ft 215 kts 248°
2026-05-05 12:12 43.81151 11.04519 10665 ft 219 kts 268°
2026-05-05 12:12 43.81303 11.02399 11224 ft 229 kts 276°
2026-05-05 12:12 43.81978 11.00246 11339 ft 266 kts 301°
2026-05-05 12:12 43.83512 10.98523 11304 ft 311 kts 329°
2026-05-05 12:13 43.85773 10.97983 11367 ft 354 kts 359°
2026-05-05 12:13 43.88215 10.99040 11656 ft 382 kts 28°
2026-05-05 12:13 43.90136 11.01592 12439 ft 389 kts 52°
2026-05-05 12:13 43.91510 11.04851 13126 ft 393 kts 63°
2026-05-05 12:14 43.92726 11.08254 13895 ft 397 kts 63°
2026-05-05 12:14 43.94114 11.11608 14427 ft 404 kts 56°
2026-05-05 12:14 43.95801 11.14730 15135 ft 406 kts 51°
2026-05-05 12:14 43.97585 11.17731 15747 ft 411 kts 50°
2026-05-05 12:15 43.99323 11.20899 16497 ft 414 kts 54°
2026-05-05 12:15 44.00963 11.24222 17160 ft 420 kts 56°
2026-05-05 12:15 44.02653 11.27556 17896 ft 423 kts 53°
2026-05-05 12:15 44.04578 11.30674 18472 ft 429 kts 41°
2026-05-05 12:16 44.06959 11.33106 19322 ft 423 kts 29°
2026-05-05 12:16 44.09575 11.35005 19953 ft 426 kts 24°
2026-05-05 12:16 44.12284 11.36689 20591 ft 427 kts 16°
2026-05-05 12:16 44.15176 11.37593 21295 ft 425 kts
2026-05-05 12:17 44.18124 11.37699 21968 ft 423 kts 352°
2026-05-05 12:17 44.21032 11.37095 22626 ft 424 kts 346°
2026-05-05 12:17 44.23946 11.36367 23286 ft 428 kts 346°
2026-05-05 12:17 44.26897 11.35649 23856 ft 432 kts 346°
2026-05-05 12:18 44.29868 11.34932 24416 ft 435 kts 346°
2026-05-05 12:18 44.32860 11.34198 24984 ft 438 kts 346°
2026-05-05 12:18 44.35873 11.33452 25499 ft 442 kts 346°
2026-05-05 12:18 44.38911 11.32706 26041 ft 445 kts 346°
2026-05-05 12:19 44.41975 11.31957 26580 ft 448 kts 346°
2026-05-05 12:19 44.45056 11.31200 27133 ft 452 kts 345°
2026-05-05 12:19 44.48169 11.30430 27626 ft 457 kts 345°
2026-05-05 12:19 44.51310 11.29655 28169 ft 460 kts 345°
2026-05-05 12:20 44.54512 11.29137 28659 ft 469 kts 353°
2026-05-05 12:20 44.57791 11.29204 29201 ft 474 kts 357°
2026-05-05 12:20 44.61100 11.29331 29723 ft 477 kts 356°
2026-05-05 12:20 44.64424 11.29430 30216 ft 480 kts 356°
2026-05-05 12:21 44.67730 11.29529 30631 ft 483 kts 356°
2026-05-05 12:21 44.71146 11.29652 31079 ft 486 kts 356°
2026-05-05 12:21 44.74473 11.29776 31718 ft 483 kts 356°
2026-05-05 12:21 44.77833 11.29889 32319 ft 483 kts 356°
2026-05-05 12:22 44.81189 11.29994 32907 ft 482 kts 356°
2026-05-05 12:22 44.84541 11.30109 33564 ft 481 kts 356°
2026-05-05 12:22 44.87878 11.30228 34196 ft 479 kts 356°
2026-05-05 12:22 44.91203 11.30342 34774 ft 478 kts 356°
2026-05-05 12:23 44.94520 11.30451 35382 ft 475 kts 356°
2026-05-05 12:23 44.97823 11.30564 35984 ft 474 kts 356°
2026-05-05 12:23 45.01108 11.30679 36582 ft 472 kts 356°
2026-05-05 12:23 45.04379 11.30791 37269 ft 468 kts 356°
2026-05-05 12:24 45.07624 11.30902 37922 ft 465 kts 356°
2026-05-05 12:24 45.10856 11.31012 38501 ft 464 kts 357°
2026-05-05 12:24 45.14085 11.31123 38988 ft 463 kts 357°
2026-05-05 12:24 45.17310 11.31234 39376 ft 464 kts 357°
2026-05-05 12:25 45.20543 11.31345 39766 ft 464 kts 357°
2026-05-05 12:25 45.23780 11.31456 39992 ft 469 kts 357°
2026-05-05 12:25 45.27086 11.31566 39991 ft 480 kts 357°
2026-05-05 12:25 45.30416 11.31681 40001 ft 490 kts 357°
2026-05-05 12:26 45.37370 11.31926 40023 ft 509 kts 358°
2026-05-05 12:26 45.44555 11.32175 40029 ft 521 kts 358°
2026-05-05 12:27 45.51817 11.32426 40016 ft 523 kts 358°
2026-05-05 12:27 45.59095 11.32684 40019 ft 523 kts 358°
2026-05-05 12:28 45.66366 11.32937 40013 ft 523 kts 358°
2026-05-05 12:28 45.73642 11.33192 40020 ft 522 kts 358°
2026-05-05 12:29 45.80918 11.33447 40018 ft 524 kts 358°
2026-05-05 12:29 45.88186 11.33708 40017 ft 522 kts 358°
2026-05-05 12:30 45.95402 11.33959 40015 ft 522 kts 358°
2026-05-05 12:30 46.02665 11.34221 40018 ft 522 kts 358°
2026-05-05 12:31 46.09931 11.34479 40007 ft 522 kts 358°
2026-05-05 12:31 46.17186 11.34735 40000 ft 522 kts 358°
2026-05-05 12:32 46.24445 11.34995 40033 ft 522 kts 358°
2026-05-05 12:32 46.31705 11.35255 39992 ft 522 kts 358°
2026-05-05 12:33 46.38954 11.35516 39993 ft 521 kts 358°
2026-05-05 12:33 46.46220 11.35777 40001 ft 522 kts 358°
2026-05-05 12:34 46.53500 11.36041 39993 ft 524 kts 358°
2026-05-05 12:34 46.60807 11.36305 39995 ft 525 kts 358°
2026-05-05 12:35 46.68124 11.36572 39988 ft 527 kts 358°
2026-05-05 12:35 46.75451 11.36838 39976 ft 527 kts 358°
2026-05-05 12:36 46.82729 11.37105 39964 ft 527 kts 359°
2026-05-05 12:36 46.90084 11.37373 39952 ft 528 kts 359°
2026-05-05 12:37 46.97492 11.37648 39939 ft 529 kts 359°
2026-05-05 12:37 47.04794 11.38348 39908 ft 532 kts
2026-05-05 12:38 47.12165 11.39091 39870 ft 532 kts
2026-05-05 12:38 47.19483 11.39827 39396 ft 514 kts
2026-05-05 12:39 47.23001 11.40182 38788 ft 498 kts 360°
2026-05-05 12:39 47.26411 11.40249 38109 ft 483 kts 357°
2026-05-05 12:39 47.29728 11.40210 37383 ft 472 kts 356°
2026-05-05 12:39 47.33003 11.40183 36699 ft 469 kts 357°
2026-05-05 12:40 47.36281 11.40213 36057 ft 473 kts 358°
2026-05-05 12:40 47.39592 11.40245 35468 ft 478 kts 357°
2026-05-05 12:40 47.42922 11.40214 34900 ft 479 kts 356°
2026-05-05 12:40 47.46265 11.40134 34364 ft 480 kts 356°
2026-05-05 12:41 47.49586 11.39765 33778 ft 479 kts 348°
2026-05-05 12:41 47.52790 11.38488 33123 ft 476 kts 337°
2026-05-05 12:41 47.55783 11.36430 32507 ft 474 kts 327°
2026-05-05 12:41 47.58489 11.33638 31926 ft 478 kts 316°
2026-05-05 12:42 47.60838 11.30175 31378 ft 475 kts 306°
2026-05-05 12:42 47.62730 11.26205 30832 ft 470 kts 296°
2026-05-05 12:42 47.64127 11.21820 30315 ft 471 kts 286°
2026-05-05 12:42 47.64991 11.17198 29799 ft 461 kts 277°
2026-05-05 12:43 47.65546 11.12539 29260 ft 457 kts 275°
2026-05-05 12:43 47.66101 11.07912 28717 ft 454 kts 276°
2026-05-05 12:43 47.66654 11.03332 28185 ft 449 kts 276°
2026-05-05 12:43 47.67195 10.98783 27678 ft 446 kts 276°
2026-05-05 12:44 47.67719 10.94322 27393 ft 447 kts 275°
2026-05-05 12:44 47.68251 10.89782 27268 ft 446 kts 276°
2026-05-05 12:44 47.68789 10.85243 27142 ft 446 kts 276°
2026-05-05 12:44 47.69322 10.80712 27024 ft 445 kts 275°
2026-05-05 12:45 47.69850 10.76183 26734 ft 447 kts 275°
2026-05-05 12:45 47.70375 10.71668 26061 ft 440 kts 276°
2026-05-05 12:45 47.70895 10.67221 25401 ft 435 kts 276°
2026-05-05 12:45 47.71403 10.62823 24759 ft 430 kts 276°
2026-05-05 12:46 47.71902 10.58466 24114 ft 426 kts 276°
2026-05-05 12:46 47.72397 10.54150 23481 ft 423 kts 276°
2026-05-05 12:46 47.72889 10.49867 22791 ft 418 kts 276°
2026-05-05 12:46 47.73373 10.45625 22174 ft 414 kts 276°
2026-05-05 12:47 47.73841 10.41492 21564 ft 410 kts 276°
2026-05-05 12:47 47.74266 10.37338 20935 ft 403 kts 272°
2026-05-05 12:47 47.74060 10.33259 20329 ft 392 kts 255°
2026-05-05 12:47 47.73233 10.29439 19774 ft 386 kts 247°
2026-05-05 12:48 47.72299 10.25716 19200 ft 383 kts 246°
2026-05-05 12:48 47.71380 10.22026 18621 ft 380 kts 247°
2026-05-05 12:48 47.70482 10.18356 18038 ft 376 kts 247°
2026-05-05 12:48 47.69591 10.14732 17450 ft 371 kts 247°
2026-05-05 12:49 47.68698 10.11146 16907 ft 368 kts 247°
2026-05-05 12:49 47.67815 10.07601 16347 ft 365 kts 247°
2026-05-05 12:49 47.67236 10.05271 15985 ft 362 kts 248°
2026-05-05 12:49 47.66371 10.01785 15447 ft 359 kts 247°
2026-05-05 12:50 47.65508 9.98325 14899 ft 355 kts 248°
2026-05-05 12:50 47.64654 9.94907 14374 ft 352 kts 248°
2026-05-05 12:50 47.63805 9.91516 13849 ft 349 kts 248°
2026-05-05 12:50 47.62964 9.88157 13311 ft 345 kts 248°
2026-05-05 12:51 47.62126 9.84825 12890 ft 345 kts 247°
2026-05-05 12:51 47.61292 9.81510 12392 ft 342 kts 247°
2026-05-05 12:51 47.60595 9.78145 11873 ft 345 kts 258°
2026-05-05 12:51 47.60551 9.74586 11345 ft 347 kts 270°
2026-05-05 12:52 47.60769 9.71120 10877 ft 327 kts 273°
2026-05-05 12:52 47.61038 9.67870 10409 ft 309 kts 274°
2026-05-05 12:52 47.61306 9.64791 9947 ft 294 kts 274°
2026-05-05 12:52 47.61558 9.61834 9451 ft 286 kts 274°
2026-05-05 12:53 47.61805 9.58928 8932 ft 283 kts 274°
2026-05-05 12:53 47.62044 9.56050 8413 ft 280 kts 274°
2026-05-05 12:53 47.62272 9.53202 7906 ft 277 kts 274°
2026-05-05 12:53 47.62492 9.50378 7406 ft 275 kts 274°
2026-05-05 12:54 47.62912 9.44820 6438 ft 271 kts 274°
2026-05-05 12:54 47.63116 9.42051 5945 ft 270 kts 274°
2026-05-05 12:54 47.63313 9.39304 5434 ft 266 kts 274°
2026-05-05 12:55 47.63494 9.36585 5005 ft 263 kts 274°
2026-05-05 12:55 47.63594 9.33942 4942 ft 257 kts 263°
2026-05-05 12:55 47.62857 9.31603 4922 ft 256 kts 227°
2026-05-05 12:55 47.61337 9.30192 4996 ft 262 kts 206°
2026-05-05 12:56 47.59658 9.29160 5008 ft 263 kts 203°
2026-05-05 12:56 47.57945 9.28136 5005 ft 265 kts 204°
2026-05-05 12:56 47.56249 9.27127 5003 ft 264 kts 203°
2026-05-05 12:56 47.54494 9.26899 4919 ft 249 kts 169°
2026-05-05 12:57 47.53102 9.28173 4915 ft 226 kts 137°
2026-05-05 12:57 47.52096 9.29871 4999 ft 221 kts 133°
2026-05-05 12:57 47.51465 9.31919 4935 ft 222 kts 99°
2026-05-05 12:57 47.51275 9.34234 4998 ft 228 kts 100°
2026-05-05 12:58 47.50982 9.36553 4663 ft 234 kts 102°
2026-05-05 12:58 47.50681 9.38861 4240 ft 228 kts 101°
2026-05-05 12:58 47.50391 9.41137 3837 ft 224 kts 101°
2026-05-05 12:58 47.50106 9.43389 3431 ft 221 kts 101°
2026-05-05 12:59 47.49823 9.45625 3056 ft 222 kts 101°
2026-05-05 12:59 47.49542 9.47847 2650 ft 214 kts 101°
2026-05-05 12:59 47.49298 9.49770 2261 ft 166 kts 101°
2026-05-05 13:00 47.48910 9.52653 1782 ft 136 kts 102°
2026-05-05 13:00 47.48718 9.54055 1529 ft 142 kts 99°
2026-05-05 13:01 47.48418 9.56910 1309 ft 19 kts 98°
2026-05-05 13:01 47.48412 9.56991 1311 ft 5 kts 84°
2026-05-05 13:01 47.48409 9.57022 1312 ft 1 kts 177°
2026-05-05 13:01 47.48411 9.56966 1310 ft 10 kts 279°
2026-05-05 13:02 47.48423 9.56851 1308 ft 12 kts 278°
2026-05-05 13:02 47.48435 9.56732 1307 ft 12 kts 279°
2026-05-05 13:02 47.48448 9.56617 1307 ft 11 kts 279°
2026-05-05 13:02 47.48461 9.56498 1307 ft 14 kts 278°
2026-05-05 13:03 47.48476 9.56352 1309 ft 16 kts 279°
2026-05-05 13:03 47.48496 9.56158 1310 ft 20 kts 277°
2026-05-05 13:03 47.48515 9.55970 1314 ft 18 kts 279°
2026-05-05 13:03 47.48536 9.55781 1317 ft 18 kts 279°
2026-05-05 13:04 47.48555 9.55588 1314 ft 19 kts 277°
2026-05-05 13:04 47.48573 9.55406 1315 ft 15 kts 279°
2026-05-05 13:04 47.48600 9.55328 1314 ft 7 kts 346°
2026-05-05 13:04 47.48626 9.55330 1312 ft 0 kts
2026-05-05 13:05 47.48661 9.55336 1311 ft 10 kts
2026-05-05 13:05 47.48711 9.55347 1310 ft 3 kts
2026-05-05 13:05 47.48727 9.55392 1309 ft 7 kts 97°
2026-05-05 13:05 47.48725 9.55471 1310 ft 6 kts 56°
2026-05-05 13:06 47.48752 9.55458 1309 ft 4 kts 278°
2026-05-05 13:06 47.48751 9.55417 1309 ft 3 kts 260°
2026-05-05 13:06 47.48753 9.55396 1309 ft 1 kts 320°
2026-05-05 13:06 47.48764 9.55397 1308 ft 0 kts
2026-05-05 13:07 47.48760 9.55397 1308 ft 1 kts
2026-05-05 13:07 47.48751 9.55395 1309 ft 0 kts